Miscellaneous Local Product
Issued by NWS North Platte, NE

Home | Current Version | Previous Version | Graphics & Text | Print | Product List | Glossary On
Versions: 1 2 3 4 5 6 7 8 9 10 11 12 13 14 15 16 17 18 19 20 21 22 23 24 25 26 27 28 29 30 31 32 33 34 35 36 37 38 39 40 41 42 43 44 45 46 47 48 49 50
000
AXUS43 KLBF 282010
MISLBF


WESTERN AND NORTH CENTRAL NEBRASKA HOURLY WEATHER ROUNDUP
NATIONAL WEATHER SERVICE NORTH PLATTE NE
300 PM CDT SUN JUN 28 2015

***STATIONS NOT REPORTING VARIABLES SUCH AS SKY/WEATHER OR
PRESSURE ARE PROVIDED BY THE NEBRASKA DEPARTMENT OF
ROADS...RAWS...AND APRS NETWORKS...AND ARE NOT UNDER
NATIONAL WEATHER SERVICE QUALITY CONTROL***

...OBSERVATIONS IN AND NEAR THE EASTERN PANHANDLE OF NEBRASKA...

CITY           SKY/WX    TMP DP  RH WIND       PRES   REMARKS
PINE RIDGE     SUNNY     86  57  37 VRB3      30.08F
CHADRON        SUNNY     90  57  32 CALM      30.07F
ALLIANCE       SUNNY     87  48  25 VRB3      30.11S
SIDNEY         SUNNY     89  52  28 NE8       30.15F
WHITECLAY        N/A     85  54  34 W3          N/A
CRESCENT LAKE    N/A     90  45  20 N9G17       N/A
BIG SPRINGS      N/A     92  45  19 NE8         N/A
$$

...OBSERVATIONS IN NORTH CENTRAL NEBRASKA...

CITY           SKY/WX    TMP DP  RH WIND       PRES   REMARKS
VALENTINE      MOSUNNY   83  53  35 N10       30.05F
THEDFORD       SUNNY     85  58  40 N9G18     30.07S
AINSWORTH      MOSUNNY   82  54  37 N20       30.04F
O`NEILL        MOSUNNY   81  56  43 N15       30.00S
ORD            SUNNY     86  49  27 N20G28    29.98S
BROKEN BOW     SUNNY     85  58  39 N16       30.02F
VALENTINE NWR    N/A     82  54  37 N9G17       N/A
SPRINGVIEW       N/A     82  59  45 NW8G16      N/A
HALSEY           N/A     85  56  37 NW9G16      N/A
BREWSTER         N/A     87  55  33 E15         N/A
ROSE             N/A     89  65  45 NW22        N/A  HX  91
NEWPORT          N/A     82  50  32 W13         N/A
SARGENT          N/A     86  54  33 NE3G12      N/A
CHAMBERS         N/A     86  53  31 W5G12       N/A
EWING            N/A     80  57  45 N8          N/A
$$

...OBSERVATIONS IN SOUTHWEST NEBRASKA AND FAR NORTHEAST COLORADO...

CITY           SKY/WX    TMP DP  RH WIND       PRES   REMARKS
WRAY           FAIR      94  47  19 N10       30.09F HX  90
HOLYOKE        FAIR      95  46  18 N12       30.10F HX  91
IMPERIAL       SUNNY     92  47  21 N6        30.06F
OGALLALA       SUNNY     90  47  22 NW9       30.07F
NORTH PLATTE   SUNNY     90  54  29 N10G20    30.03F
MCCOOK         SUNNY     93  51  23 N14G21    30.01F HX  90
LEXINGTON      SUNNY     91  55  30 N12G18    30.01F
PAXTON           N/A     91  51  25 NW8         N/A
GOTHENBURG       N/A     88  50  26 N13         N/A
CALLAWAY         N/A     87  61  41 NW13        N/A
$$

...NORTH PLATTE AREA...

CITY           SKY/WX    TMP DP  RH WIND       PRES   REMARKS
AIRPORT        SUNNY     90  54  29 N10G20    30.03F
DOWNTOWN         N/A     88  56  33 N6          N/A
SANDRIDGE        N/A     90  56  31 N3          N/A
HILLCREST        N/A     87  55  33 NE12        N/A
$$

...SOME WEATHER OBSERVATIONS FROM AROUND THE REGION...

CITY           SKY/WX    TMP DP  RH WIND       PRES   REMARKS
DENVER         MOSUNNY   90  50  25 VRB3      30.17F
LARAMIE        MOSUNNY   86  39  19 NW10      30.30F
CHEYENNE       MOSUNNY   81  51  35 S9        30.24F
SCOTTSBLUFF    SUNNY     89  50  26 VRB6      30.11F
RAPID CITY     SUNNY     84  59  42 E7        30.09F
PIERRE         MOSUNNY   82  55  39 N13G18    29.99S
WINNER         FAIR      85  45  24 N12G21    30.01S
SIOUX FALLS    MOSUNNY   84  57  39 N18       29.89S
OMAHA          PTSUNNY   88  59  37 NW21G26   29.84F
GRAND ISLAND   SUNNY     89  45  21 N21G30    29.96F
KANSAS CITY    PTSUNNY   85  60  42 NW16G24   29.85S
WICHITA        MOSUNNY   93  58  30 W12       29.90F HX  92
HAYS           SUNNY     97  50  20 NW9       29.95F HX  94
LIBERAL        SUNNY     93  61  33 E6        30.00F HX  93
GOODLAND       SUNNY     89  46  22 VRB5      30.09F
$$



USA.gov is the U.S. government's official web portal to all federal, state and local government web resources and services.